When you browse on this site, cookies collect data to enhance your experience and personalize the content and advertising you see.
Visit our Privacy Policy to learn more. By continuing to use the site, you agree to this use of cookies and data.
  • In Latvia
  • List of Countries
  • For 7 days
  • Water Temperature
  • Satellite Maps
  • Weather Map
  • Weather Widgets
  • user-avatar
    Login

    Hourly Weather Pully

    Today, 17 July, Wednesday

    Time Temperature Precipitation Wind Pressure Humidity
    00:00 +18°C° 0 mm 1 mps 722 mmHg 78%
    01:00 +18°C° 0 mm 1 mps 722 mmHg 79%
    02:00 +16°C° 0 mm 1 mps 722 mmHg 79%
    03:00 +16°C° 0 mm 1 mps 721 mmHg 79%
    04:00 +18°C° 0 mm 1 mps 722 mmHg 77%
    05:00 +18°C° 0 mm 0 mps 722 mmHg 74%
    06:00 +19°C° 0 mm 0 mps 722 mmHg 69%
    07:00 +21°C° 0 mm 0 mps 722 mmHg 65%
    08:00 +24°C° 0 mm 1 mps 722 mmHg 60%
    09:00 +26°C° 0 mm 1 mps 722 mmHg 55%
    10:00 +27°C° 0 mm 1 mps 721 mmHg 53%
    11:00 +27°C° 0 mm 1 mps 721 mmHg 50%
    12:00 +28°C° 0 mm 1 mps 721 mmHg 48%
    13:00 +28°C° 0 mm 1 mps 721 mmHg 48%
    14:00 +28°C° 0 mm 1 mps 721 mmHg 47%
    15:00 +28°C° 0 mm 1 mps 721 mmHg 47%
    16:00 +27°C° 0 mm 1 mps 721 mmHg 54%
    17:00 +25°C° 0 mm 1 mps 721 mmHg 61%
    18:00 +24°C° 0 mm 1 mps 720 mmHg 68%
    19:00 +22°C° 0 mm 1 mps 721 mmHg 71%
    20:00 +21°C° 0 mm 1 mps 721 mmHg 73%
    21:00 +19°C° 0 mm 1 mps 721 mmHg 76%
    22:00 +19°C° 0 mm 1 mps 721 mmHg 76%
    23:00 +18°C° 0 mm 1 mps 721 mmHg 77%

    Tomorrow, 18 July, Thursday

    Time Temperature Precipitation Wind Pressure Humidity
    00:00 +18°C° 0 mm 1 mps 720 mmHg 77%
    01:00 +18°C° 0 mm 1 mps 720 mmHg 77%
    02:00 +18°C° 0 mm 1 mps 720 mmHg 76%
    03:00 +18°C° 0 mm 1 mps 720 mmHg 76%
    04:00 +17°C° 0 mm 0 mps 720 mmHg 74%
    05:00 +18°C° 0 mm 0 mps 720 mmHg 73%
    06:00 +19°C° 0 mm 0 mps 720 mmHg 71%
    07:00 +20°C° 0 mm 0 mps 721 mmHg 65%
    08:00 +22°C° 0 mm 0 mps 721 mmHg 58%
    09:00 +26°C° 0 mm 1 mps 721 mmHg 51%
    10:00 +26°C° 0 mm 1 mps 721 mmHg 50%
    11:00 +27°C° 0 mm 1 mps 721 mmHg 49%
    12:00 +27°C° 0 mm 1 mps 720 mmHg 48%
    13:00 +27°C° 0 mm 1 mps 720 mmHg 49%
    14:00 +27°C° 0 mm 1 mps 720 mmHg 50%
    15:00 +27°C° 0 mm 1 mps 720 mmHg 50%
    16:00 +26°C° 0 mm 1 mps 721 mmHg 58%
    17:00 +25°C° 0 mm 1 mps 721 mmHg 66%
    18:00 +24°C° 0 mm 1 mps 721 mmHg 73%
    19:00 +22°C° 0 mm 1 mps 721 mmHg 75%
    20:00 +21°C° 0 mm 1 mps 722 mmHg 78%
    21:00 +18°C° 0 mm 0 mps 722 mmHg 80%
    22:00 +19°C° 0 mm 1 mps 722 mmHg 83%
    23:00 +19°C° 0 mm 1 mps 722 mmHg 85%

    Day after tomorrow, 19 July, Friday

    Time Temperature Precipitation Wind Pressure Humidity
    00:00 +18°C° 0 mm 1 mps 722 mmHg 88%
    01:00 +18°C° 0 mm 1 mps 722 mmHg 89%
    02:00 +16°C° 0 mm 1 mps 722 mmHg 90%
    03:00 +16°C° 0 mm 1 mps 722 mmHg 91%
    04:00 +18°C° 0 mm 1 mps 722 mmHg 88%
    05:00 +17°C° 0 mm 0 mps 723 mmHg 86%
    06:00 +18°C° 0 mm 0 mps 723 mmHg 84%
    07:00 +20°C° 0 mm 0 mps 723 mmHg 77%
    08:00 +23°C° 0 mm 1 mps 723 mmHg 69%
    09:00 +25°C° 0 mm 1 mps 723 mmHg 62%
    10:00 +26°C° 0 mm 1 mps 723 mmHg 59%
    11:00 +27°C° 0 mm 1 mps 723 mmHg 57%
    12:00 +27°C° 0 mm 1 mps 723 mmHg 54%
    13:00 +27°C° 0 mm 1 mps 722 mmHg 53%
    14:00 +28°C° 0 mm 1 mps 722 mmHg 53%
    15:00 +28°C° 0 mm 1 mps 722 mmHg 53%
    16:00 +27°C° 0 mm 1 mps 722 mmHg 59%
    17:00 +26°C° 0 mm 1 mps 722 mmHg 65%
    18:00 +25°C° 0 mm 1 mps 722 mmHg 71%
    19:00 +23°C° 0 mm 1 mps 722 mmHg 75%
    20:00 +21°C° 0 mm 1 mps 723 mmHg 78%
    21:00 +20°C° 0 mm 1 mps 723 mmHg 82%
    22:00 +19°C° 0 mm 1 mps 723 mmHg 82%
    23:00 +19°C° 0 mm 1 mps 722 mmHg 83%

    20 July, Saturday

    Time Temperature Precipitation Wind Pressure Humidity
    00:00 +19°C° 0 mm 1 mps 722 mmHg 83%
    01:00 +19°C° 0 mm 1 mps 722 mmHg 83%
    02:00 +18°C° 0 mm 1 mps 722 mmHg 83%
    03:00 +18°C° 0 mm 1 mps 722 mmHg 83%
    04:00 +19°C° 0 mm 1 mps 722 mmHg 81%
    05:00 +21°C° 0 mm 1 mps 722 mmHg 78%
    06:00 +22°C° 0 mm 1 mps 723 mmHg 76%
    07:00 +24°C° 0 mm 1 mps 723 mmHg 68%
    08:00 +26°C° 0 mm 1 mps 723 mmHg 61%
    09:00 +28°C° 0 mm 2 mps 724 mmHg 53%
    10:00 +29°C° 0 mm 2 mps 724 mmHg 50%
    11:00 +29°C° 0 mm 3 mps 724 mmHg 47%
    12:00 +30°C° 0 mm 3 mps 724 mmHg 43%
    13:00 +32°C° 0 mm 4 mps 723 mmHg 43%
    14:00 +32°C° 0 mm 4 mps 723 mmHg 43%
    15:00 +32°C° 0 mm 4 mps 723 mmHg 43%
    16:00 +30°C° 0 mm 3 mps 723 mmHg 50%
    17:00 +28°C° 0 mm 2 mps 724 mmHg 58%
    18:00 +27°C° 0 mm 1 mps 724 mmHg 66%
    19:00 +26°C° 0.1 mm 1 mps 724 mmHg 67%
    20:00 +25°C° 0.1 mm 1 mps 725 mmHg 68%
    21:00 +23°C° 0.1 mm 1 mps 725 mmHg 68%
    22:00 +23°C° 0 mm 1 mps 725 mmHg 70%
    23:00 +22°C° 0 mm 1 mps 725 mmHg 72%

    21 July, Sunday

    Time Temperature Precipitation Wind Pressure Humidity
    00:00 +21°C° 0 mm 1 mps 725 mmHg 73%
    01:00 +21°C° 0 mm 1 mps 725 mmHg 74%
    02:00 +21°C° 0 mm 1 mps 725 mmHg 75%
    03:00 +20°C° 0 mm 1 mps 725 mmHg 76%
    04:00 +21°C° 0 mm 1 mps 726 mmHg 76%
    05:00 +22°C° 0 mm 1 mps 726 mmHg 75%
    06:00 +23°C° 0 mm 1 mps 726 mmHg 74%
    07:00 +25°C° 0 mm 1 mps 727 mmHg 68%
    08:00 +27°C° 0 mm 1 mps 727 mmHg 62%
    09:00 +29°C° 0 mm 1 mps 727 mmHg 57%
    10:00 +30°C° 0 mm 1 mps 727 mmHg 54%
    11:00 +31°C° 0 mm 1 mps 727 mmHg 51%
    12:00 +32°C° 0 mm 1 mps 727 mmHg 48%
    13:00 +32°C° 0 mm 1 mps 726 mmHg 46%
    14:00 +32°C° 0 mm 1 mps 726 mmHg 44%
    15:00 +32°C° 0 mm 1 mps 726 mmHg 43%
    16:00 +31°C° 0 mm 1 mps 726 mmHg 50%
    17:00 +30°C° 0 mm 1 mps 726 mmHg 57%
    18:00 +28°C° 0 mm 1 mps 726 mmHg 64%
    19:00 +27°C° 0 mm 1 mps 726 mmHg 66%
    20:00 +25°C° 0 mm 1 mps 726 mmHg 67%
    21:00 +24°C° 0 mm 1 mps 726 mmHg 69%
    22:00 +23°C° 0 mm 1 mps 726 mmHg 70%
    23:00 +23°C° 0 mm 1 mps 726 mmHg 72%

    22 July, Monday

    Time Temperature Precipitation Wind Pressure Humidity
    00:00 +22°C° 0 mm 1 mps 726 mmHg 73%
    01:00 +22°C° 0 mm 1 mps 726 mmHg 73%
    02:00 +22°C° 0 mm 1 mps 726 mmHg 73%
    03:00 +22°C° 0 mm 1 mps 726 mmHg 73%
    04:00 +22°C° 0 mm 1 mps 726 mmHg 73%
    05:00 +21°C° 0 mm 0 mps 726 mmHg 73%
    06:00 +22°C° 0 mm 0 mps 726 mmHg 73%
    07:00 +24°C° 0 mm 0 mps 726 mmHg 67%
    08:00 +26°C° 0 mm 0 mps 726 mmHg 60%
    09:00 +30°C° 0 mm 1 mps 726 mmHg 54%
    10:00 +31°C° 0 mm 1 mps 725 mmHg 51%
    11:00 +32°C° 0 mm 1 mps 725 mmHg 49%
    12:00 +33°C° 0 mm 1 mps 725 mmHg 46%
    13:00 +33°C° 0 mm 1 mps 725 mmHg 46%
    14:00 +33°C° 0 mm 1 mps 725 mmHg 46%
    15:00 +33°C° 0 mm 1 mps 725 mmHg 45%
    16:00 +32°C° 0.4 mm 1 mps 724 mmHg 53%
    17:00 +31°C° 0.4 mm 1 mps 724 mmHg 61%
    18:00 +29°C° 0.4 mm 1 mps 724 mmHg 69%
    19:00 +28°C° 0.2 mm 1 mps 724 mmHg 71%
    20:00 +26°C° 0.2 mm 1 mps 725 mmHg 74%
    21:00 +24°C° 0.2 mm 1 mps 725 mmHg 76%
    22:00 +24°C° 0.1 mm 1 mps 725 mmHg 77%
    23:00 +23°C° 0.1 mm 1 mps 725 mmHg 79%
    Show more